This is the latest recevied weather packets stored in our database for station/object APPOWX. If no packets are shown the sender has not sent any weather packets the latest 10 day(s).
| Time | Temp. | Humidity | Pressure | Rain* | Wind** | Luminosity | Snow |
|---|---|---|---|---|---|---|---|
| 1778291393 | 15° C | 49% | 1016.7 hPa | 0 mm | - | - | - |
| 1778291334 | 15° C | 52% | 1016.6 hPa | 0 mm | - | - | - |
| 1778291273 | 15° C | 51% | 1016.7 hPa | 0 mm | - | - | - |
| 1778291213 | 15° C | 50% | 1016.6 hPa | 0 mm | - | - | - |
| 1778291153 | 15° C | 50% | 1016.6 hPa | 0 mm | - | - | - |
| 1778291093 | 15° C | 51% | 1016.5 hPa | 0 mm | - | - | - |
| 1778291034 | 15° C | 50% | 1016.8 hPa | 0 mm | - | - | - |
| 1778290973 | 15° C | 49% | 1016.7 hPa | 0 mm | - | - | - |
| 1778290913 | 15° C | 49% | 1016.5 hPa | 0 mm | - | - | - |
| 1778290853 | 15° C | 49% | 1016.5 hPa | 0 mm | - | - | - |
| 1778290793 | 15° C | 48% | 1016.7 hPa | 0 mm | - | - | - |
| 1778290732 | 15° C | 49% | 1016.5 hPa | 0 mm | - | - | - |
| 1778290673 | 15.56° C | 51% | 1016.5 hPa | 0 mm | - | - | - |
| 1778290613 | 15.56° C | 49% | 1016.5 hPa | 0 mm | - | - | - |
| 1778290553 | 15.56° C | 48% | 1016.6 hPa | 0 mm | - | - | - |
| 1778290493 | 15.56° C | 48% | 1016.6 hPa | 0 mm | - | - | - |
| 1778290432 | 15.56° C | 49% | 1016.6 hPa | 0 mm | - | - | - |
| 1778290373 | 15.56° C | 49% | 1016.7 hPa | 0 mm | - | - | - |
| 1778290312 | 15.56° C | 49% | 1016.6 hPa | 0 mm | - | - | - |
| 1778290252 | 15.56° C | 48% | 1016.7 hPa | 0 mm | - | - | - |
| 1778290193 | 15.56° C | 48% | 1016.6 hPa | 0 mm | - | - | - |
| 1778290132 | 15.56° C | 48% | 1016.5 hPa | 0 mm | - | - | - |
| 1778290073 | 15.56° C | 47% | 1016.5 hPa | 0 mm | - | - | - |
| 1778290012 | 15.56° C | 47% | 1016.3 hPa | 0 mm | - | - | - |
| 1778289953 | 15.56° C | 47% | 1016.5 hPa | 0 mm | - | - | - |
* Rain latest hour (hover to see other rain measurements)
** Current wind speed in m/s (hover to see current wind gust speed)